Regional Weather Roundup
Issued by NWS Newport/Morehead, NC

Current Version | Previous Version | Graphics & Text | Print | Product List | Glossary Off
Versions: 1 2 3 4 5 6 7 8 9 10 11 12 13 14 15 16 17 18 19 20 21 22 23 24 25 26 27 28 29 30 31 32 33 34 35 36 37 38 39 40 41 42 43 44 45 46 47 48 49 50

000
ASUS42 KMHX 291125
RWRMHX
WEATHER ROUNDUP FOR EASTERN NORTH CAROLINA
NATIONAL WEATHER SERVICE NEWPORT/MOREHEAD CITY NC
700 AM EDT THU SEP 29 2016

NOTE: "FAIR" INDICATES FEW OR NO CLOUDS BELOW 12,000 FEET
WITH NO SIGNIFICANT WEATHER AND/OR OBSTRUCTIONS TO VISIBILITY

NCZ015>017-031-032-045>047-102-103-291200-
NORTH COAST

CITY           SKY/WX    TMP DP  RH WIND       PRES   REMARKS
EDENTON        CLEAR     74  74 100 E5        30.01S
ELIZABETH CITY PTCLDY    73  72  96 E6        30.02R
KITTY HAWK     CLOUDY    75  75 100 CALM      30.01S
MANTEO         CLOUDY    73  73 100 NE3       30.02R

$$

NCZ045>047-081-094-103-104-291200-
CENTRAL COAST

CITY           SKY/WX    TMP DP  RH WIND       PRES   REMARKS
FRISCO         PTCLDY    73  70  90 E5        30.00R

$$

NCZ095-097-098-100-101-291200-
SOUTHERN COAST

CITY           SKY/WX    TMP DP  RH WIND       PRES   REMARKS
BEAUFORT       PTCLDY    73  72  96 CALM      29.98R
CEDAR ISLAND   NOT AVBL
JACKSONVILLE   CLEAR     73  71  93 CALM      29.96S
PINEY ISLAND   MOSUNNY  N/A N/A N/A E3        29.99R
WILMINGTON     PTCLDY    76  72  87 SE5       29.95S


$$

NCZ011>013-027>030-043-044-078>080-089-090>093-098-291200-
COASTAL PLAIN

CITY           SKY/WX    TMP DP  RH WIND       PRES   REMARKS
AHOSKIE        FOG       70  70  99 E3        30.01S VSB 1/2
CLINTON        RAIN      67  67 100 NE3       30.00R
ELIZABETHTOWN  LGT RAIN  67  67 100 N3        29.97S
GOLDSBORO      RAIN      67  67 100 N8        29.98F FOG
GREENVILLE     PTCLDY    70  70 100 CALM      30.01S
HAVELOCK       PTCLDY    71  68  90 E3        29.99S
KENANSVILLE    LGT RAIN  66  66 100 N8        29.99F
KINSTON        MOCLDY    68  66  94 W5        30.01R
NEW BERN       PTCLDY    68  67  96 N5        30.00R
RICHLANDS      CLOUDY    70  68  94 NW9       29.98R
ROCKY MOUNT    LGT RAIN  68  68 100 W7        30.02R
WASHINGTON     PTCLDY    69  68  98 NE3       30.01R
WHITEVILLE     CLOUDY    74  72  95 E5        29.93S

$$

AMZ130-135-150-152-154-156-158-170-250-252-270-ANZ085-086-088-633-658-670-291200-
MARINE OBSERVATIONS

STATION/POSITION TIME  TEMP    WIND        PRES    WAVE   SWELL
                       AIR SEA DIR/SP/G            HT/PER HT/PER
                 (UTC) (F)     (DEG/KT/KT) (MB)    (FT/S) (FT/S)
CHESAPEAKE LIGHT NOT AVBL
64 E VA BEACH    1050   76 74  100/  6/  8 1016.6    5/ 8   5/ 8
DUCK             1100   76 76  100/  9/ 10 1016.0
2 E DUCK         1041      76                N/A     4/ 8   2/11
OREGON INLET     1100   76 77   50/  4/  6 1016.2
13E OREGON INLT  1100      76                N/A     4/ 8   3/ 8
HATTERAS CG      1100   76 78  100/  4/  7 1015.5
DIAMOND BUOY     1050   77 81   80/  4/  6 1015.3    3/11   3/11
CAPE LOOKOUT     1100   78     190/  3/  4 1015.0
BEAUFORT LAB     1100   78 77  130/  2/  2 1014.7
30 SE NEW RVR IN 1108   81 83  190/  8/ 12 1014.7
30 SE NEW RVR IN 1055      83                N/A     3/ 7   2/11
27 SE WRIGHTSVLE 1108   81 81  170/ 10/ 14 1014.9
5 SE WRIGHTSVLE  1008   81 81  180/ 10/ 14 1015.5
225 S CAPE HAT   1050   80 83  180/ 12/ 16 1016.4    4/11   2/11
41 SE CHARLESTON 1050   81 82  220/ 10/ 12 1013.4    3/ 4   2/11

$$



USA.gov is the U.S. government's official web portal to all federal, state and local government web resources and services.